Regional Weather Roundup
Issued by NWS

Home | Current Version | Previous Version | Graphics & Text | Print | Product List | Glossary On
Versions: 1 2 3 4 5 6 7 8 9 10 11 12 13 14 15 16 17 18 19 20 21 22 23 24 25 26 27 28 29 30 31 32 33 34 35 36 37 38 39 40 41 42 43 44 45 46 47 48 49 50
000
ASUS43 KMKX 180800
RWRWI

WISCONSIN REGIONAL WEATHER ROUNDUP
NATIONAL WEATHER SERVICE MILWAUKEE/SULLIVAN WI
300 AM CDT THU SEP 18 2014

NOTE: "FAIR" INDICATES FEW OR NO CLOUDS BELOW 12,000 FEET WITH NO
SIGNIFICANT WEATHER AND/OR OBSTRUCTIONS TO VISIBILITY.

WIZ001-002-006>008-014>016-023>028-180900-
NORTHWEST WISCONSIN

CITY           SKY/WX    TMP DP  RH WIND       PRES   REMARKS
SUPERIOR ARPT  CLOUDY    42  38  84 E7        30.16S
ASHLAND        CLOUDY    44  39  82 NE8       30.16R
HAYWARD        CLOUDY    44  41  89 NE5       30.12S
SIREN          CLOUDY    46  42  85 E5        30.10S
RICE LAKE      CLEAR     45  43  93 NE3       30.11R
LADYSMITH      MOCLDY    46  45  94 NE6       30.12S
EAU CLAIRE     NOT AVBL
MENOMONIE      SUNNY     47  46  94 N3        30.08S
NEW RICHMOND   CLEAR     46  46  97 NE5       30.08S
OSCEOLA        CLEAR     46  46 100 CALM      30.11S
$$

WIZ003>005-009-010-017-018-180900-
NORTH CENTRAL WISCONSIN

CITY           SKY/WX    TMP DP  RH WIND       PRES   REMARKS
WOODRUFF       CLOUDY    42  38  89 NE5       30.13S
RHINELANDER    CLOUDY    44  40  85 E7        30.13S
EAGLE RIVER    CLOUDY    40  37  87 NE6       30.13S
LAND O LAKES   CLOUDY    38  36  92 E7        30.15S WCI  33
PHILLIPS       CLOUDY    46  43  91 E5        30.11S
TOMAHAWK       CLOUDY    46  43  88 E3        30.12S
MEDFORD        CLOUDY    48  47  95 E6        30.09S
MERRILL        CLOUDY    49  47  90 SE6       30.10S
$$

WIZ029-030-035-036-043>047-180900-
CENTRAL WISCONSIN

CITY           SKY/WX    TMP DP  RH WIND       PRES   REMARKS
WAUSAU         CLOUDY    47  45  93 E6        30.10S
MOSINEE        CLEAR     45  43  93 E6        30.11S
MARSHFIELD     CLEAR     48  46  93 E9        30.09R
STEVENS POINT  CLEAR     44  41  89 E7        30.11S
WAUPACA        CLOUDY    50  46  87 E7        30.12S
WAUTOMA        NOT AVBL
WISC RAPIDS    MOCLDY    48  45  89 E8        30.11R
CAMP DOUGLAS   FOG       41  41 100 NE1       30.07S VSB 3/4
$$

WIZ011>013-019>022-031-037>040-048>050-180900-
NORTHEAST WISCONSIN

CITY           SKY/WX    TMP DP  RH WIND       PRES   REMARKS
ANTIGO         CLOUDY    44  42  94 E8        30.12S
STURGEON BAY   CLOUDY    45  37  76 NE9       30.13F
GREEN BAY      CLOUDY    48  43  82 N10       30.12R
MANITOWOC      NOT AVBL
APPLETON       CLOUDY    48  43  81 NE9       30.11S
CLINTONVILLE   PTCLDY    45  39  81 E7        30.12R
OSHKOSH        CLOUDY    52  47  83 NE12      30.10R
$$

WIZ032>034-041-042-053>061-180900-
SOUTHWEST WISCONSIN

CITY           SKY/WX    TMP DP  RH WIND       PRES   REMARKS
LA CROSSE      CLEAR     52  50  93 SE5       30.05S
SPARTA         PTCLDY    45  45  99 S3        30.07R
VIROQUA        FAIR      50  50 100 E3        30.06R
BOSCOBEL       FOG       51  49  92 CALM      30.06S VSB 1/4
PRAIRIE DU CHI FOG       48  47  96 E3        30.05S VSB 1/2
PLATTEVILLE    FAIR      48  47  94 CALM      30.06R
$$

WIZ056-057-062-063-064-067-068-180900-
SOUTH CENTRAL WISCONSIN

CITY           SKY/WX    TMP DP  RH WIND       PRES   REMARKS
BARABOO/DELLS  MOCLDY    50  48  94 NE9       30.07S FOG
LONE ROCK      HAZE      52  47  83 CALM      30.06S VSB 1/4
WATERTOWN      CLEAR     47  47  99 NE5       30.06S
MADISON        CLEAR     47  45  93 N5        30.07R FOG
MIDDLETON      FAIR      46  46  99 CALM      30.06S
MONROE         CLEAR     54  50  87 CALM      30.05S
JANESVILLE     CLEAR     48  45  87 CALM      30.05S
$$

WIZ051-052-058>065-066-070>072-180900-
SOUTHEAST WISCONSIN

CITY           SKY/WX    TMP DP  RH WIND       PRES   REMARKS
MILWAUKEE      MOCLDY    53  49  86 N12       30.08R
WAUKESHA       CLEAR     48  46  93 NE3       30.09R
MILWAUKEE/TIMM CLEAR     50  46  87 N8        30.08S
RACINE         MOCLDY    54  52  93 N12       30.08R
BURLINGTON     CLEAR     41  41 100 CALM      30.05S FOG
KENOSHA        CLEAR     48  47  96 W3        30.06R
FOND DU LAC    CLOUDY    50  45  83 E9        30.10R
SHEBOYGAN      CLOUDY    49  46  90 NE13      30.09S
WEST BEND      CLOUDY    50  45  81 NE7       30.09R
JUNEAU         FOG       51  50  99 NE8       30.09R VSB 3/4
$$

LSZ147-162-180900-
LAKE SUPERIOR

STATION/POSITION TIME  TEMP    WIND        PRES    WAVE
                       AIR SEA DIR/SP/G            HT/PER
                 (UTC) (F)     (DEG/KT/KT) (MB)    (FT/S)
W MID LAKE BUOY  0650   44 47  120/ 12/ 14 1021.9R   3/ 6
DEVILS ISLAND    0700   45     100/ 14/ 16 1022.1R
PORT WING        0740   44      70/  3/  8 1021.7R
SAXON HARBOR     0740   45      80/  4/  8 1021.3R
$$

LMZ867-665-643>646-180900-
LAKE MICHIGAN

STATION/POSITION TIME  TEMP    WIND        PRES    WAVE
                       AIR SEA DIR/SP/G            HT/PER
                 (UTC) (F)     (DEG/KT/KT) (MB)    (FT/S)
N MID LAKE BUOY  0650   48 58   20/ 16/ 19 1019.9R   4/ 5
NORTHPORT PIER   0700   46      10/ 13/ 17 1020.7R
KEWAUNEE LAKESHO 0700   49      30/ 13/ 21 1018.6R
SHEBOYGAN LAKESH 0700   50 49  360/ 17/ 18 1019.1R
PORT WASHINGTON  0700   52     360/  7/ 11 1019.3
ATWATER BUOY     0700   55      10/ 19/ 21 1018.8R
MILWAUKEE LAKESH 0700   55      10/ 15/ 20   N/A
S MID LAKE BUOY  0650   63 65  230/  6/  8 1017.4R   0
KENOSHA   LAKESH 0700   55     270/  4/  5 1017.3R
$$

TC  - TEMPERATURE IN CELSIUS
VSB - VISIBILITY IN STATUTE MILES
WCI - WIND CHILL INDEX
HX  - HEAT INDEX



USA.gov is the U.S. government's official web portal to all federal, state and local government web resources and services.